Gwinn, MI

3:32 PM EDT on June 25, 2017 (GMT -0400)
Sawyer International

Weather History for KSAW - August, 2014

Change the Weather History Date:

Sunday, August 10, 2014

  Actual Average (KESC) Record (KESC)
Temperature  
Mean Temperature 68 °F -  
Max Temperature 80 °F 72 °F 86 °F (2007)
Min Temperature 56 °F 56 °F 42 °F (1996)
Cooling Degree Days 3    
Growing Degree Days 18 (Base 50)    
Moisture  
Dew Point 57 °F    
Average Humidity 75    
Maximum Humidity 90    
Minimum Humidity 42    
Precipitation  
Precipitation 0.00 in - - ()
Sea Level Pressure  
Sea Level Pressure 30.11 in    
Wind  
Wind Speed 2 mph (SSW)    
Max Wind Speed 12 mph    
Max Gust Speed -    
Visibility 10 miles    
Events      
Averages and records for this station are not official NWS values.
T = Trace of Precipitation, MM = Missing Value Source: NWS Daily Summary

Daily Weather History Graph

Daily Weather History Graph

Search for Another Location

Airport or City:

Trip Planner

Search our weather history database for the weather conditions in past years. The results will help you decide how hot, cold, wet, or windy it might be!

Date:

Astronomy

Aug. 10, 2014 Rise Set
Actual Time 6:42 AM EDT 9:06 PM EDT
Civil Twilight 6:08 AM EDT 9:40 PM EDT
Nautical Twilight 5:26 AM EDT 10:22 PM EDT
Astronomical Twilight 4:38 AM EDT 11:09 PM EDT
Moon 8:48 PM EDT (8/10) 6:36 AM EDT (8/10)
Length of Visible Light 15h 31m
Length of Day
14h 24m
Full, 100% of the Moon is Illuminated
Aug 10
Full
Aug 10
Full
Aug 17
Last Quarter
Aug 25
New
Sep 2
First Quarter

Hourly Weather History & Observations

Time (EDT) Temp. Heat Index Dew Point Humidity Pressure Visibility Wind Dir Wind Speed Gust Speed Precip Events Conditions
12:16 AM 62.8 °F - 55.8 °F 78% 30.15 in 10.0 mi Calm Calm - N/A   Clear
12:35 AM 62.2 °F - 57.0 °F 83% 30.15 in 10.0 mi Calm Calm - N/A   Clear
12:55 AM 63.0 °F - 57.0 °F 81% 30.15 in 10.0 mi Calm Calm - N/A   Clear
1:16 AM 61.3 °F - 56.1 °F 83% 30.15 in 10.0 mi Calm Calm - N/A   Clear
1:35 AM 61.2 °F - 55.4 °F 81% 30.15 in 10.0 mi Calm Calm - N/A   Clear
1:56 AM 59.2 °F - 55.4 °F 87% 30.15 in 10.0 mi Calm Calm - N/A   Clear
2:15 AM 58.1 °F - 54.7 °F 88% 30.14 in 10.0 mi Calm Calm - N/A   Clear
2:35 AM 58.6 °F - 55.4 °F 89% 30.14 in 10.0 mi Calm Calm - N/A   Clear
2:56 AM 59.0 °F - 55.4 °F 88% 30.14 in 10.0 mi Calm Calm - N/A   Clear
3:15 AM 58.6 °F - 55.4 °F 89% 30.14 in 10.0 mi Calm Calm - N/A   Clear
3:35 AM 57.2 °F - 53.2 °F 87% 30.14 in 10.0 mi Calm Calm - N/A   Clear
3:56 AM 56.5 °F - 52.9 °F 88% 30.14 in 10.0 mi Calm Calm - N/A   Clear
4:15 AM 57.2 °F - 54.3 °F 90% 30.14 in 10.0 mi Calm Calm - N/A   Clear
4:35 AM 58.3 °F - 55.4 °F 90% 30.13 in 10.0 mi Calm Calm - N/A   Clear
4:56 AM 57.6 °F - 54.1 °F 88% 30.14 in 10.0 mi Calm Calm - N/A   Clear
5:15 AM 57.2 °F - 54.3 °F 90% 30.14 in 10.0 mi Calm Calm - N/A   Clear
5:35 AM 56.7 °F - 53.8 °F 90% 30.15 in 10.0 mi Calm Calm - N/A   Clear
5:56 AM 57.6 °F - 54.1 °F 88% 30.15 in 10.0 mi Calm Calm - N/A   Clear
6:55 AM 57.2 °F - 53.6 °F 88% 30.15 in 10.0 mi NW 3.5 mph - N/A   Clear
7:55 AM 57.2 °F - 53.6 °F 88% 30.16 in 10.0 mi Calm Calm - N/A   Clear
8:55 AM 62.6 °F - 57.2 °F 82% 30.15 in 10.0 mi Calm Calm - N/A   Clear
9:50 AM 69.8 °F - 59.0 °F 68% 30.14 in 10.0 mi West 4.6 mph - N/A   Clear
10:55 AM 75.2 °F - 55.4 °F 50% 30.13 in 10.0 mi West 5.8 mph - N/A   Clear
11:50 AM 75.2 °F - 57.2 °F 53% 30.13 in 10.0 mi SSW 3.5 mph - N/A   Clear
12:55 PM 77.0 °F - 57.2 °F 50% 30.13 in 10.0 mi SW 6.9 mph - N/A   Scattered Clouds
1:50 PM 77.0 °F - 57.2 °F 50% 30.11 in 10.0 mi SSW 3.5 mph - N/A   Scattered Clouds
2:45 PM 78.8 °F - 57.2 °F 47% 30.09 in 10.0 mi Calm Calm - N/A   Scattered Clouds
3:45 PM 80.6 °F 80.5 °F 55.4 °F 42% 30.07 in 10.0 mi Calm Calm - N/A   Scattered Clouds
4:45 PM 80.6 °F 80.5 °F 55.4 °F 42% 30.06 in 10.0 mi South 8.1 mph - N/A   Scattered Clouds
5:45 PM 80.6 °F 80.8 °F 57.2 °F 45% 30.05 in 10.0 mi SSW 5.8 mph - N/A   Scattered Clouds
6:45 PM 78.8 °F - 57.2 °F 47% 30.04 in 10.0 mi South 6.9 mph - N/A   Partly Cloudy
7:45 PM 77.0 °F - 59.0 °F 54% 30.04 in 10.0 mi South 11.5 mph - N/A   Clear
8:45 PM 73.4 °F - 60.8 °F 65% 30.03 in 10.0 mi South 6.9 mph - N/A   Clear
9:45 PM 69.8 °F - 60.8 °F 73% 30.04 in 10.0 mi SE 4.6 mph - N/A   Clear
10:16 PM 68.7 °F - 61.0 °F 76% 30.04 in 10.0 mi South 5.8 mph - N/A   Clear
10:36 PM 67.8 °F - 61.0 °F 79% 30.04 in 10.0 mi SSW 4.6 mph - N/A   Clear
10:55 PM 66.4 °F - 60.8 °F 82% 30.04 in 10.0 mi South 6.9 mph - N/A   Clear
11:16 PM 66.2 °F - 60.8 °F 83% 30.03 in 10.0 mi SSW 4.6 mph - N/A   Clear
11:35 PM 66.2 °F - 60.8 °F 83% 30.03 in 10.0 mi South 4.6 mph - N/A   Clear
11:55 PM 65.3 °F - 60.6 °F 85% 30.03 in 10.0 mi SSW 4.6 mph - N/A   Clear